This is the latest recevied weather packets stored in our database for station/object WI0K. If no packets are shown the sender has not sent any weather packets the latest 10 day(s).
| Time | Temp. | Humidity | Pressure | Rain* | Wind** | Luminosity | Snow |
|---|---|---|---|---|---|---|---|
| 1788027227 | 30.56° C | 29% | 1019 hPa | 0 mm | - | 729 W/m² | - |
| 1788026926 | 30.56° C | 27% | 1019 hPa | 0 mm | - | 867 W/m² | - |
| 1788026626 | 30° C | 31% | 1019.1 hPa | 0 mm | - | 810 W/m² | - |
| 1788026325 | 30° C | 27% | 1019.1 hPa | 0 mm | - | 644 W/m² | - |
| 1788026024 | 30° C | 30% | 1019.2 hPa | 0 mm | - | 806 W/m² | - |
| 1788025724 | 30.56° C | 27% | 1019.1 hPa | 0 mm | - | 873 W/m² | - |
| 1788025423 | 30° C | 28% | 1019.2 hPa | 0 mm | - | 821 W/m² | - |
| 1788025122 | 30° C | 34% | 1019.4 hPa | 0 mm | - | 770 W/m² | - |
| 1788024821 | 30° C | 31% | 1019.5 hPa | 0 mm | - | 844 W/m² | - |
| 1788024520 | 30° C | 31% | 1019.6 hPa | 0 mm | - | 736 W/m² | - |
| 1788024220 | 30° C | 32% | 1019.6 hPa | 0 mm | - | 630 W/m² | - |
| 1788023919 | 30° C | 32% | 1019.6 hPa | 0 mm | - | 825 W/m² | - |
| 1788023618 | 30° C | 29% | 1019.6 hPa | 0 mm | - | 833 W/m² | - |
| 1788023317 | 30° C | 33% | 1019.6 hPa | 0 mm | - | 848 W/m² | - |
| 1788023027 | 29.44° C | 30% | 1019.6 hPa | 0 mm | - | 877 W/m² | - |
| 1788022716 | 28.89° C | 34% | 1019.7 hPa | 0 mm | - | 905 W/m² | - |
| 1788022421 | 28.89° C | 31% | 1019.7 hPa | 0 mm | - | 397 W/m² | - |
| 1788022114 | 28.89° C | 32% | 1019.7 hPa | 0 mm | - | 641 W/m² | - |
| 1788021814 | 29.44° C | 32% | 1019.7 hPa | 0 mm | - | 560 W/m² | - |
| 1788021512 | 28.89° C | 37% | 1019.7 hPa | 0 mm | - | 798 W/m² | - |
| 1788021212 | 28.89° C | 33% | 1019.7 hPa | 0 mm | - | 789 W/m² | - |
| 1788020911 | 28.33° C | 34% | 1019.8 hPa | 0 mm | - | 765 W/m² | - |
| 1788020610 | 27.78° C | 35% | 1019.8 hPa | 0 mm | - | 753 W/m² | - |
| 1788020309 | 27.78° C | 36% | 1019.7 hPa | 0 mm | - | 726 W/m² | - |
| 1788020008 | 27.78° C | 35% | 1019.7 hPa | 0 mm | - | 714 W/m² | - |
* Rain latest hour (hover to see other rain measurements)
** Current wind speed in m/s (hover to see current wind gust speed)